This is the latest recevied weather packets stored in our database for station/object W5ALL-WX. If no packets are shown the sender has not sent any weather packets the latest 10 day(s).
| Time | Temp. | Humidity | Pressure | Rain* | Wind** | Luminosity | Snow |
|---|---|---|---|---|---|---|---|
| 1777409527 | 26.67° C | 5% | 1015.9 hPa | 0 mm | - | - | - |
| 1777409227 | 26.67° C | 5% | 1015.9 hPa | 0 mm | - | - | - |
| 1777408927 | 27.22° C | 5% | 1015.9 hPa | 0 mm | - | - | - |
| 1777408627 | 27.22° C | 5% | 1015.9 hPa | 0 mm | - | - | - |
| 1777408327 | 27.22° C | 5% | 1015.9 hPa | 0 mm | - | - | - |
| 1777408027 | 27.22° C | 5% | 1016 hPa | 0 mm | - | - | - |
| 1777407727 | 27.78° C | 5% | 1016.1 hPa | 0 mm | - | - | - |
| 1777407427 | 27.78° C | 5% | 1016.2 hPa | 0 mm | - | - | - |
| 1777407127 | 27.78° C | 5% | 1016.1 hPa | 0 mm | - | - | - |
| 1777406827 | 28.33° C | 5% | 1016.1 hPa | 0 mm | - | - | - |
| 1777406527 | 27.78° C | 5% | 1016.1 hPa | 0 mm | - | - | - |
| 1777406227 | 27.78° C | 5% | 1016.1 hPa | 0 mm | - | - | - |
| 1777405927 | 27.22° C | 5% | 1016.1 hPa | 0 mm | - | - | - |
| 1777405627 | 27.22° C | 5% | 1016.2 hPa | 0 mm | - | - | - |
| 1777405327 | 26.67° C | 5% | 1016.3 hPa | 0 mm | - | - | - |
| 1777405027 | 26.67° C | 6% | 1016.4 hPa | 0 mm | - | - | - |
| 1777404727 | 26.67° C | 6% | 1016.4 hPa | 0 mm | - | - | - |
| 1777404427 | 26.67° C | 6% | 1016.6 hPa | 0 mm | - | - | - |
| 1777404127 | 26.67° C | 6% | 1016.4 hPa | 0 mm | - | - | - |
| 1777403827 | 26.11° C | 6% | 1016.4 hPa | 0 mm | - | - | - |
| 1777403527 | 26.11° C | 6% | 1016.6 hPa | 0 mm | - | - | - |
| 1777403227 | 26.11° C | 6% | 1016.4 hPa | 0 mm | - | - | - |
| 1777402926 | 25.56° C | 6% | 1016.4 hPa | 0 mm | - | - | - |
| 1777402626 | 25.56° C | 6% | 1016.7 hPa | 0 mm | - | - | - |
| 1777402326 | 25° C | 6% | 1016.8 hPa | 0 mm | - | - | - |
* Rain latest hour (hover to see other rain measurements)
** Current wind speed in m/s (hover to see current wind gust speed)